User: anonymous   Login
Location: Grand Lay
(47.3253°N, 0.9468°E)
Time: 01:38:58
(UTC+00:00)
Language:

Atlas Centaur 2 - Orbit

View from above orbital plane
View from above orbital plane
View from above satellite
View from above satellite

Ground track
Ground track

The orbit is defined by the following mean orbital elements,

1 00694U          26073.56670005 +.00000000 +00000-0 +27735-3 0 00006
2 00694  30.3517 168.3866 0547623 123.2588 242.1705 14.12087243    07
Epoch (UTC): 14 March 2026 13:36:02
Eccentricity: 0.0547623
inclination: 30.3517°
perigee height: 456 km
apogee height: 1248 km
right ascension of ascending node: 168.3866°
argument of perigee: 123.2588°
revolutions per day: 14.12087243
mean anomaly at epoch: 242.1705°

The dashed part of the orbit path shows where the satellite is in the earth's shadow,  

DLR